Change the Weather History Date:

Friday, September 5, 2014

  Actual Average Record
Temperature  
Mean Temperature 70 °F -  
Max Temperature 78 °F 75 °F 90 °F (1988)
Min Temperature 64 °F 57 °F 40 °F (1970)
Cooling Degree Days 4    
Growing Degree Days 20 (Base 50)    
Moisture  
Dew Point 27 °F    
Average Humidity 21    
Maximum Humidity 38    
Minimum Humidity 13    
Precipitation  
Precipitation 0.00 in - - ()
Sea Level Pressure  
Sea Level Pressure 29.80 in    
Wind  
Wind Speed 5 mph (SE)    
Max Wind Speed 10 mph    
Max Gust Speed -    
Visibility 10 miles    
Events      
Averages and records for this station are not official NWS values.
T = Trace of Precipitation, MM = Missing Value Source: NWS Daily Summary

Daily Weather History Graph

Daily Weather History Graph

Search for Another Location

Airport or City:

Trip Planner

Search our weather history database for the weather conditions in past years. The results will help you decide how hot, cold, wet, or windy it might be!

Date:

Astronomy

Sep. 05, 2014 Rise Set
Actual Time 6:35 AM PDT 7:27 PM PDT
Civil Twilight 6:07 AM PDT 7:54 PM PDT
Nautical Twilight 5:35 AM PDT 8:26 PM PDT
Astronomical Twilight 5:01 AM PDT 8:59 PM PDT
Moon 4:59 PM PDT (9/5) 2:35 AM PDT (9/5)
Length of Visible Light 13h 46m
Length of Day
12h 52m
Waxing Gibbous, 85% of the Moon is Illuminated
Sep 5
Waxing Gibbous
Sep 8
Full
Sep 15
Last Quarter
Sep 23
New
Oct 1
First Quarter

Hourly Weather History & Observations

Time (PDT) Temp. Dew Point Humidity Pressure Visibility Wind Dir Wind Speed Gust Speed Precip Events Conditions
12:52 AM 66.0 °F 14.0 °F 13% 29.72 in 10.0 mi ENE 5.8 mph - N/A   Clear
1:52 AM 64.9 °F 14.0 °F 14% 29.72 in 10.0 mi NE 4.6 mph - N/A   Clear
2:52 AM 64.0 °F 14.0 °F 14% 29.75 in 10.0 mi East 3.5 mph - N/A   Clear
3:52 AM 66.0 °F 15.1 °F 14% 29.74 in 10.0 mi East 3.5 mph - N/A   Clear
4:52 AM 66.0 °F 16.0 °F 15% 29.75 in 10.0 mi ESE 3.5 mph - N/A   Clear
5:52 AM 66.0 °F 16.0 °F 15% 29.76 in 10.0 mi ESE 3.5 mph - N/A   Clear
6:52 AM 64.9 °F 18.0 °F 16% 29.79 in 10.0 mi ESE 3.5 mph - N/A   Clear
7:52 AM 68.0 °F 21.9 °F 17% 29.80 in 10.0 mi East 3.5 mph - N/A   Clear
8:52 AM 71.1 °F 23.0 °F 16% 29.81 in 10.0 mi Calm Calm - N/A   Clear
9:52 AM 72.0 °F 21.9 °F 15% 29.82 in 10.0 mi Variable 5.8 mph - N/A   Clear
10:52 AM 73.9 °F 25.0 °F 16% 29.82 in 10.0 mi Variable 5.8 mph - N/A   Clear
11:52 AM 75.9 °F 28.9 °F 18% 29.81 in 10.0 mi Variable 6.9 mph - N/A   Clear
12:52 PM 75.0 °F 32.0 °F 21% 29.81 in 10.0 mi West 10.4 mph - N/A   Clear
1:52 PM 75.9 °F 33.1 °F 21% 29.81 in 10.0 mi West 8.1 mph - N/A   Clear
2:52 PM 75.9 °F 33.1 °F 21% 29.82 in 10.0 mi South 8.1 mph - N/A   Clear
3:52 PM 75.9 °F 34.0 °F 22% 29.81 in 10.0 mi SSW 10.4 mph - N/A   Clear
4:52 PM 75.0 °F 34.0 °F 22% 29.81 in 10.0 mi South 8.1 mph - N/A   Clear
5:52 PM 75.0 °F 35.1 °F 23% 29.81 in 10.0 mi West 5.8 mph - N/A   Clear
6:52 PM 73.0 °F 36.0 °F 26% 29.83 in 10.0 mi West 5.8 mph - N/A   Clear
7:52 PM 69.1 °F 37.0 °F 31% 29.83 in 10.0 mi West 3.5 mph - N/A   Clear
8:52 PM 66.9 °F 37.9 °F 34% 29.85 in 10.0 mi Calm Calm - N/A   Clear
9:52 PM 66.9 °F 37.0 °F 33% 29.85 in 10.0 mi Variable 3.5 mph - N/A   Clear
10:52 PM 64.0 °F 37.9 °F 38% 29.86 in 10.0 mi ESE 3.5 mph - N/A   Clear
11:52 PM 64.9 °F 37.9 °F 37% 29.85 in 10.0 mi Calm Calm - N/A   Clear